GEFSSE_con_cape1000_066.txt.gz
Probability
87 100 100 100 100 100 100 100 100 100 100 100 100 100 100 100 100 100 100 100 100 100 100 97 97 94 97 97 97 97 97 97 97 94 90 94 90 97 90 90 97 94 100
97 100 100 100 100 100 100 100 100 100 100 100 100 100 100 100 100 100 100 100 97 100 100 97 97 94 97 97 97 94 94 97 100 100 100 94 97 94 87 97 100 90 97
100 100 100 100 100 100 100 100 100 100 100 100 100 100 100 100 100 100 100 100 97 97 97 94 94 97 97 97 97 100 100 100 100 100 97 97 97 97 97 97 100 97 97
100 100 100 100 100 100 100 100 100 100 100 100 100 100 100 100 100 100 100 100 97 97 94 94 94 90 97 97 100 100 100 100 100 100 87 87 94 94 100 100 100 100 100
100 100 100 100 100 100 100 100 100 100 100 100 100 100 100 100 100 100 100 100 100 90 94 87 90 87 87 100 100 100 100 100 100 87 65 84 97 100 100 100 97 97 100
100 100 100 100 100 100 100 100 100 100 100 100 100 100 100 100 100 100 100 100 94 97 94 90 90 90 90 94 100 100 100 100 100 74 77 90 100 100 100 100 97 97 100
100 100 100 100 100 100 100 100 100 100 100 100 100 100 100 100 100 100 100 100 97 97 97 90 87 90 94 90 94 100 100 100 65 74 77 94 100 100 100 100 100 100 100
100 100 100 100 100 100 100 100 100 100 100 100 100 100 100 100 100 100 100 100 100 97 100 100 100 97 97 100 97 100 100 94 81 74 74 94 100 100 100 100 100 100 100
100 100 100 100 100 100 100 100 100 100 100 100 100 100 97 97 100 100 100 100 100 100 100 100 100 97 94 94 100 100 100 94 42 81 71 87 97 100 100 100 100 100 100
100 100 100 100 100 100 97 100 100 100 97 100 97 94 87 87 87 97 100 100 100 100 100 100 100 100 97 97 97 100 100 81 45 58 81 87 97 100 100 100 100 100 100
97 90 90 97 94 94 94 94 87 90 87 84 81 81 77 58 65 77 87 90 90 100 100 100 100 100 97 97 97 100 97 65 45 68 71 81 94 97 100 100 100 100 100
94 87 84 90 90 90 90 77 65 61 58 61 55 42 32 29 32 58 68 87 84 87 90 94 97 97 90 84 81 90 77 65 58 58 68 77 87 97 100 100 100 100 100
81 84 74 77 71 65 65 55 48 39 32 26 23 16 16 13 13 16 23 39 42 55 55 65 74 77 81 71 74 68 74 68 55 58 61 77 90 94 100 100 100 100 100
61 74 65 58 55 42 48 42 23 10 6 3 6 6 3 3 3 3 3 10 16 19 26 39 39 42 52 55 52 55 48 48 48 48 55 74 87 90 94 97 97 100 100
45 48 52 45 32 26 19 23 6 3 3 0 0 0 0 0 3 0 0 0 0 3 10 13 13 19 26 35 35 35 42 39 39 29 39 58 74 87 90 87 94 94 97
26 35 35 29 19 13 10 6 3 0 0 0 0 0 0 0 0 0 0 0 0 0 0 0 0 0 3 13 16 16 26 19 23 26 35 48 61 71 84 94 94 87 90
26 32 26 19 6 3 3 3 0 0 0 0 0 0 0 0 0 0 0 0 0 0 0 0 0 0 0 0 3 3 10 10 13 16 26 32 48 68 81 84 87 84 90
23 16 10 16 3 0 0 0 0 0 0 0 0 0 0 0 0 0 0 0 0 0 0 0 0 0 0 0 0 0 0 0 0 3 13 19 29 29 52 71 74 81 84
16 3 3 3 0 0 0 0 0 0 0 0 0 0 0 0 0 0 0 0 0 0 0 0 0 0 0 0 0 0 0 0 0 0 3 6 10 13 19 29 55 65 74
6 3 3 0 0 0 0 0 0 0 0 0 0 0 0 0 0 0 0 0 0 0 0 0 0 0 0 0 0 0 0 0 0 0 0 0 3 6 10 13 29 42 52
6 3 0 0 0 0 0 0 0 0 0 0 0 0 0 0 0 0 0 0 0 0 0 0 0 0 0 0 0 0 0 0 0 0 0 0 0 0 0 3 6 13 32
0 0 0 0 0 0 0 0 0 0 0 0 0 0 0 0 0 0 0 0 0 0 0 0 0 0 0 0 0 0 0 0 0 0 0 0 0 0 0 0 3 3 10
3 3 0 0 0 0 0 0 0 0 0 0 0 0 0 0 0 0 0 0 0 0 0 0 0 0 0 0 0 0 0 0 0 0 0 0 0 0 0 0 0 3 3
3 3 3 0 0 0 0 0 0 0 0 0 0 0 0 0 0 0 0 0 0 0 0 0 0 0 0 0 0 0 0 0 0 0 0 0 0 0 0 0 0 0 0
6 3 0 0 0 0 0 0 0 0 0 0 0 0 0 0 0 0 0 0 0 0 0 0 0 0 0 0 0 0 0 0 0 0 0 0 0 0 0 0 0 0 0
3 3 0 0 0 0 0 0 0 0 0 0 0 0 0 0 0 0 0 0 0 0 0 0 0 0 0 0 0 0 0 0 0 0 0 0 0 0 0 0 0 0 0

GEFSSE_con_cape1000_072.txt.gz
Probability
29 52 100 100 100 100 100 100 100 100 100 100 100 100 100 100 100 100 100 100 100 94 90 87 94 97 94 94 94 94 90 97 87 77 81 74 77 71 77 81 77 77 94
45 58 100 100 100 100 100 100 100 100 100 100 100 100 100 100 100 97 97 97 97 94 90 90 94 94 94 97 97 94 97 97 97 97 90 84 84 81 87 81 81 94 94
58 61 90 100 100 100 100 100 100 100 100 100 100 100 100 100 97 97 97 97 94 87 90 84 90 94 97 97 97 100 100 100 100 97 97 87 87 81 84 84 87 94 94
48 65 61 100 100 100 100 100 100 100 100 100 100 100 100 100 97 97 94 94 90 84 68 81 87 94 97 97 100 100 100 100 97 94 90 68 77 90 84 87 90 94 94
58 68 100 100 100 100 100 100 100 100 100 100 100 100 100 100 100 94 94 90 84 81 84 84 81 84 97 100 100 100 100 100 87 90 77 74 97 90 87 90 90 94 94
77 87 100 100 100 100 100 100 100 100 100 100 100 100 100 100 100 97 94 87 90 84 87 90 90 90 97 100 100 100 100 100 94 71 87 87 94 94 87 90 94 97 97
68 74 94 100 100 100 100 100 100 100 100 100 100 100 100 100 100 100 97 94 87 84 90 90 90 94 90 97 100 100 100 100 77 71 81 87 94 94 90 90 94 97 97
68 74 100 100 100 100 100 100 100 100 100 100 100 100 100 100 100 100 100 100 94 94 97 97 100 97 100 97 100 100 100 97 58 48 68 87 94 94 90 90 94 97 97
71 87 100 94 100 100 100 100 100 100 100 100 100 100 97 97 100 100 100 100 100 100 100 100 100 100 97 100 100 100 100 94 68 65 55 97 94 94 90 90 94 97 97
90 90 100 94 97 87 97 100 100 100 100 100 97 97 97 97 97 94 100 100 100 100 100 100 100 100 100 100 100 100 100 90 65 52 48 97 94 90 90 94 97 97 97
100 100 94 90 94 87 84 100 97 97 94 90 87 84 84 84 84 90 94 94 97 100 100 100 100 100 100 100 100 100 100 87 48 55 81 97 97 97 94 94 97 94 94
100 100 100 94 97 84 77 100 97 87 87 84 84 84 84 81 81 77 84 94 94 94 94 94 94 94 90 94 100 97 84 65 68 68 84 94 97 97 90 94 97 97 90
100 100 100 97 97 87 94 90 87 84 84 74 77 68 71 77 71 65 74 77 90 87 90 90 90 90 87 87 84 87 74 55 55 71 77 90 97 94 94 94 94 94 97
97 100 100 97 94 94 87 87 81 77 74 68 71 65 55 55 52 52 61 65 71 84 87 81 84 81 90 94 84 84 81 74 58 71 97 90 84 97 97 100 97 94 97
97 97 100 97 94 94 90 84 71 71 65 61 45 39 32 32 35 32 35 48 45 52 58 68 71 74 74 71 74 77 77 74 65 61 87 71 77 87 94 90 87 87 90
90 94 94 87 84 90 87 74 61 48 48 29 23 19 23 19 23 16 26 32 32 35 42 52 65 65 65 61 61 58 61 61 61 68 71 71 71 77 87 90 90 84 87
77 84 81 77 74 81 74 55 48 32 23 16 13 10 13 6 10 13 6 6 10 23 42 35 45 48 55 58 52 52 55 48 52 55 52 58 65 68 77 87 90 90 84
74 71 71 58 55 61 48 42 32 23 13 10 6 3 0 0 0 0 3 3 6 3 16 23 19 16 23 32 39 35 32 39 39 42 45 55 65 52 68 71 81 81 81
65 61 65 55 45 48 39 32 16 13 6 3 0 0 0 0 0 0 0 0 3 0 3 3 6 10 10 13 13 19 23 29 29 29 29 32 48 45 52 48 52 65 65
42 55 45 39 35 35 29 19 13 10 3 0 0 0 0 0 0 0 0 0 0 0 0 0 6 6 6 6 0 0 3 6 16 19 23 19 29 26 23 29 45 65 68
35 32 26 35 39 29 23 16 10 6 3 0 0 0 0 0 0 0 0 0 0 0 0 0 0 0 0 0 0 0 0 0 0 6 3 13 13 16 16 26 35 35 55
29 29 26 29 29 26 19 16 19 6 0 0 0 0 0 0 0 0 0 0 0 0 0 0 0 0 0 0 0 0 0 0 0 0 0 3 3 6 10 10 16 29 32
29 26 16 23 23 23 23 13 10 10 3 0 3 3 0 0 0 0 0 0 0 0 0 0 0 0 0 0 0 0 0 0 0 0 0 0 3 6 3 3 6 19 23
26 19 16 19 26 23 23 10 3 6 3 3 0 0 3 0 0 0 0 0 0 0 0 0 0 0 0 3 3 0 0 0 0 0 0 0 0 0 0 0 3 3 3
23 16 16 29 23 32 19 13 16 13 6 3 3 3 0 0 0 0 0 0 0 0 0 0 0 0 0 0 0 0 0 0 0 0 0 0 0 0 0 0 0 0 0
26 16 23 32 39 42 35 29 35 23 16 13 10 3 0 0 0 0 0 0 0 0 0 0 0 0 0 0 0 0 0 0 0 0 0 0 0 0 0 0 0 0 0

GEFSSE_con_cape1000_078.txt.gz
Probability
77 94 100 100 100 100 100 100 100 100 100 100 100 100 100 100 100 100 100 100 100 94 94 97 94 87 81 84 81 81 84 81 84 87 74 61 61 65 58 65 68 84 90
84 90 100 100 100 100 100 100 100 100 100 100 100 100 100 97 97 97 97 97 97 94 94 94 90 84 90 87 87 94 97 87 81 87 77 61 58 58 65 68 81 87 87
84 87 100 100 100 100 100 100 100 100 100 100 100 100 97 97 97 97 97 97 94 90 90 90 90 90 94 94 94 100 100 94 90 84 74 61 68 68 77 87 87 87 87
74 84 97 100 100 100 100 100 100 100 100 100 100 100 97 97 97 97 94 90 87 84 84 84 87 94 94 94 100 100 100 94 87 71 68 65 58 74 84 87 90 87 87
65 87 100 100 100 100 100 100 100 100 100 100 100 100 100 97 97 90 90 90 81 87 81 81 87 87 94 94 97 100 90 97 90 84 81 84 84 84 90 90 87 87 87
81 94 100 100 100 100 100 100 100 100 100 100 100 100 100 94 97 87 90 90 90 84 81 84 90 94 87 90 90 97 100 100 94 87 87 87 90 94 94 94 90 90 90
84 84 100 100 100 100 100 100 100 100 100 100 100 100 100 97 94 81 87 81 87 87 77 84 94 94 90 90 90 97 100 97 90 81 87 87 90 94 94 90 90 90 94
81 84 100 100 100 100 100 100 100 100 100 100 100 100 100 100 100 94 84 81 81 90 87 94 97 97 100 97 100 97 100 97 90 77 84 84 90 94 90 90 90 90 94
90 84 94 100 100 100 100 100 100 100 100 100 100 100 97 97 94 97 94 90 84 90 94 90 97 97 94 90 94 97 100 97 84 77 74 84 90 87 90 90 90 94 90
100 90 97 94 100 100 100 100 100 100 100 100 100 97 97 97 94 94 100 100 97 100 97 97 97 100 97 94 94 100 100 97 65 71 77 90 94 90 94 94 94 94 90
97 100 97 97 100 100 97 100 100 100 100 100 100 87 90 94 87 94 94 97 100 97 97 100 97 97 100 100 94 97 100 58 35 68 77 94 94 90 94 94 94 90 87
97 94 100 100 100 97 94 97 100 97 94 94 94 87 84 87 77 77 84 90 87 94 97 100 97 94 97 97 97 97 77 68 39 74 84 94 94 90 90 94 90 90 90
94 94 97 97 100 100 100 97 94 94 94 87 81 77 77 74 74 74 84 87 90 87 94 97 97 90 87 94 90 94 81 65 58 65 90 97 97 90 87 87 94 90 90
94 94 97 97 97 94 94 94 94 87 87 77 74 65 68 68 55 61 74 65 71 81 87 84 94 81 84 81 84 84 71 81 61 74 90 97 97 94 90 90 90 97 94
90 90 94 97 97 94 90 97 84 84 71 68 61 48 42 48 52 52 61 61 58 71 77 84 84 84 84 77 77 77 74 74 68 74 87 94 97 97 94 90 94 94 90
90 87 90 97 97 94 94 94 81 68 65 48 42 26 19 32 35 39 45 61 65 65 74 84 81 74 74 74 74 71 68 71 71 68 71 87 94 100 100 97 94 90 87
84 84 90 94 97 94 87 77 74 55 48 39 26 19 16 23 23 32 42 45 61 68 55 68 58 71 68 61 68 65 61 65 61 55 58 61 65 87 100 100 94 90 90
81 84 84 81 90 87 84 77 52 42 35 19 13 10 10 6 3 23 26 32 42 39 52 74 68 61 58 65 61 61 58 58 55 55 55 61 58 48 81 97 94 87 90
77 81 81 81 87 81 74 58 42 39 29 16 13 10 3 3 3 10 19 23 26 32 32 23 45 52 48 52 55 55 42 52 45 42 45 39 55 61 58 61 84 84 87
65 74 77 81 74 68 52 55 39 26 19 16 10 10 3 0 0 0 3 3 10 32 32 42 35 35 35 35 6 16 32 32 35 32 29 26 48 52 48 39 61 61 71
65 68 68 61 65 58 48 45 26 23 19 13 6 6 3 0 0 0 6 3 16 23 23 13 16 16 19 16 10 16 19 23 29 26 26 23 26 39 45 48 42 42 48
58 58 65 68 58 55 55 65 42 32 19 16 6 6 3 3 0 0 6 6 3 16 3 6 10 10 10 3 6 10 6 13 19 16 32 29 23 26 32 29 42 35 29
42 48 45 61 58 61 55 48 35 39 23 16 10 10 6 3 0 0 0 0 3 6 0 0 3 3 3 3 0 3 3 13 13 10 13 19 19 26 26 23 29 45 35
39 32 48 52 52 58 61 55 29 26 19 19 23 13 13 3 3 0 0 0 0 3 6 0 0 3 3 3 3 3 3 10 10 10 6 3 6 3 13 3 6 19 39
32 32 42 45 55 55 58 65 61 42 48 45 39 42 10 10 3 0 0 0 0 3 3 3 3 3 6 3 3 3 3 3 0 0 0 0 3 3 3 3 6 3 13
32 26 39 55 58 61 65 68 61 55 58 61 52 42 29 23 10 3 0 0 0 0 0 0 0 0 0 0 3 3 3 3 3 0 0 0 3 3 3 3 3 3 3

GEFSSE_con_cape1000_084.txt.gz
Probability
87 100 100 100 100 100 100 100 100 100 100 100 100 100 100 100 100 100 100 100 100 100 97 94 94 97 97 94 100 94 97 100 87 68 65 65 77 77 81 90 94 97 100
90 100 100 100 100 100 100 100 100 100 100 100 100 100 100 100 100 100 100 97 97 94 94 94 94 97 97 94 100 100 100 100 90 81 68 71 74 81 84 87 90 94 100
90 100 100 100 100 100 100 100 100 100 100 100 100 100 100 97 97 97 97 97 97 97 97 97 94 97 97 97 97 97 94 90 97 77 68 55 71 84 84 87 90 100 100
94 100 100 100 100 100 100 100 100 100 100 100 100 100 100 97 94 97 97 97 97 97 97 94 94 94 97 97 97 97 94 94 90 68 39 55 68 87 90 87 87 97 100
94 97 100 100 100 100 100 100 100 100 100 100 100 100 100 97 94 94 94 94 97 97 90 90 90 90 94 97 97 97 97 94 87 65 35 55 71 90 90 87 94 94 94
94 100 100 100 100 100 100 100 100 100 100 100 100 100 100 97 97 94 94 90 90 87 77 84 90 94 94 97 97 97 97 90 77 39 45 58 84 90 90 90 90 90 90
94 100 100 100 100 100 100 100 100 100 100 100 100 100 100 97 94 94 94 97 97 87 87 84 90 94 94 97 100 97 94 87 52 48 52 77 87 90 94 94 94 90 94
100 100 100 100 100 100 100 100 100 100 100 100 100 100 100 100 100 97 97 94 90 94 94 90 87 94 97 100 100 97 90 74 71 58 61 77 90 97 94 94 94 94 94
100 100 100 100 100 100 100 100 100 100 100 100 100 100 100 100 100 100 97 97 87 87 90 90 90 84 90 94 97 97 84 81 35 42 61 77 90 94 94 94 94 90 94
100 100 100 100 100 100 100 100 100 100 100 100 100 97 97 94 94 100 100 97 94 87 90 90 84 87 90 94 97 100 87 77 29 45 55 81 90 94 90 94 90 90 94
81 94 97 100 100 100 100 100 100 100 100 100 97 97 94 81 81 94 100 100 97 97 90 84 87 94 97 97 100 94 58 32 19 32 55 84 94 94 94 97 94 94 94
71 77 87 94 97 97 97 97 97 97 94 84 74 74 65 48 45 77 90 94 90 94 94 97 97 94 87 55 68 74 19 16 26 29 48 84 90 94 94 97 97 94 94
71 77 77 81 90 81 94 94 94 84 81 65 55 45 39 26 29 58 58 74 65 71 65 81 77 71 55 42 29 23 13 13 29 23 48 77 94 94 97 94 97 97 97
68 68 61 61 55 58 68 74 71 61 55 42 26 23 19 13 13 19 23 23 29 29 23 32 35 39 32 26 29 19 16 10 19 23 45 84 97 97 97 94 94 97 97
61 65 68 65 48 42 48 48 52 35 32 26 16 13 10 10 3 0 3 0 10 10 16 16 23 23 26 23 23 23 16 6 13 23 42 87 97 97 97 97 94 94 97
55 68 77 74 52 42 32 35 32 29 19 19 13 13 3 3 0 3 0 0 3 3 3 6 6 13 6 10 10 6 3 13 19 16 29 71 94 97 97 100 94 97 97
52 55 61 52 39 35 29 26 29 23 16 13 3 3 3 3 3 0 0 3 0 3 3 6 3 3 3 3 10 10 3 6 16 19 23 32 65 87 94 94 97 97 97
48 39 48 45 39 26 16 16 13 6 6 3 3 3 3 3 0 0 0 0 0 0 0 0 0 0 0 0 0 0 0 0 3 3 16 26 23 42 68 97 97 97 97
32 29 32 35 26 19 13 13 6 3 3 3 3 3 3 0 0 0 0 0 0 0 0 0 0 0 0 0 0 0 0 0 0 6 10 10 10 10 26 52 94 97 94
29 29 32 23 19 13 6 3 0 0 0 0 0 0 0 0 0 0 0 0 0 0 0 0 0 0 0 0 0 0 0 0 0 0 0 6 3 0 3 16 35 58 97
23 23 23 19 13 13 10 3 0 0 0 0 0 0 0 0 0 0 0 0 0 0 0 0 0 0 0 0 0 0 0 0 0 0 0 0 0 3 3 3 6 10 13
19 19 23 19 10 6 6 0 0 0 0 0 0 0 0 0 0 0 0 0 0 0 0 0 0 0 0 0 0 0 0 0 0 0 0 0 0 0 0 3 0 3 3
19 19 19 10 10 10 10 0 0 0 0 0 0 0 0 0 0 0 0 0 0 0 0 0 0 0 0 0 0 0 0 0 0 0 0 0 0 0 0 0 0 6 0
19 19 13 6 10 10 10 0 0 0 0 0 0 0 0 0 0 0 0 0 0 0 0 0 0 0 0 0 0 0 0 0 0 0 0 0 0 0 0 0 0 0 0
19 10 10 10 10 10 10 0 0 0 0 0 0 0 0 0 0 0 0 0 0 0 0 0 0 0 0 0 0 0 0 0 0 0 0 0 0 0 0 0 0 0 0
13 10 16 10 10 10 6 3 0 0 0 0 0 0 0 0 0 0 0 0 0 0 0 0 0 0 0 0 0 0 0 0 0 0 0 0 0 0 0 0 0 0 0

GEFSSE_con_cape1000_090.txt.gz
Probability
68 97 100 100 100 100 100 100 100 100 100 100 100 100 100 100 100 100 100 100 100 94 87 87 77 81 81 77 77 77 77 71 68 74 77 77 87 87 94 94 100 94 97
77 100 100 100 100 100 100 100 100 100 100 100 100 100 100 100 100 100 100 100 97 90 87 90 84 81 90 87 68 81 81 74 71 74 84 77 87 87 87 90 97 90 100
84 97 100 100 100 100 100 100 100 100 100 100 100 100 100 100 100 100 97 97 97 94 90 90 87 87 94 97 87 90 84 81 77 77 74 68 87 90 90 94 100 100 100
84 97 100 100 100 100 100 100 100 100 100 100 100 100 100 100 97 97 97 97 94 94 90 87 84 87 87 97 94 97 84 77 74 71 61 71 84 84 90 90 97 100 100
94 97 100 100 100 100 100 100 100 100 100 100 100 97 97 97 97 97 97 97 94 90 84 81 84 87 87 94 97 100 90 87 71 58 61 77 84 87 87 90 97 97 97
100 97 100 100 100 100 100 100 100 100 100 100 100 100 97 97 97 94 97 90 87 87 84 87 84 81 87 94 97 100 97 90 58 55 65 77 87 87 87 94 94 97 94
100 100 100 100 100 100 100 100 100 100 100 100 100 100 97 94 94 94 84 81 81 84 84 84 87 90 100 97 97 97 97 77 39 52 71 81 87 87 90 90 97 97 97
100 100 100 100 100 100 100 100 100 100 100 100 100 100 100 100 97 97 87 84 84 90 84 87 90 84 94 100 100 100 97 71 48 55 74 84 87 94 94 90 94 94 94
100 100 100 100 100 100 100 100 100 100 100 100 100 100 100 97 94 87 90 81 81 87 81 84 81 81 90 97 100 94 94 81 42 61 74 84 90 90 87 87 87 90 97
97 100 100 100 100 100 100 100 100 100 100 100 100 100 97 94 94 90 97 87 81 77 71 68 61 65 90 94 97 97 84 77 39 55 74 90 97 90 87 87 87 94 90
97 97 97 100 100 100 100 100 100 100 100 100 97 97 97 87 81 87 94 94 84 77 77 68 71 87 94 94 90 94 74 45 48 68 81 90 97 94 94 90 87 94 94
94 97 94 97 100 100 100 100 100 97 94 94 90 90 65 45 45 74 87 87 94 87 84 84 90 81 52 48 77 65 42 45 45 58 77 90 94 94 94 94 94 94 90
77 90 90 90 94 94 97 97 94 84 84 71 65 58 29 32 26 32 45 58 48 58 48 58 58 48 35 35 32 32 32 32 45 48 68 84 90 90 94 94 94 94 94
71 77 84 87 90 87 87 94 87 74 65 45 42 29 26 19 13 10 19 26 23 26 29 26 26 29 26 32 23 19 32 35 42 45 55 84 94 87 87 94 94 97 97
65 68 71 65 74 71 71 84 68 45 39 26 26 16 13 13 13 10 10 10 10 6 3 3 6 16 16 23 26 26 23 32 35 45 52 77 97 97 87 87 87 90 97
39 48 45 52 52 45 48 52 39 32 19 19 13 13 13 10 10 6 6 3 3 0 0 0 0 3 3 6 16 26 16 26 23 26 35 58 81 90 87 90 87 90 90
26 29 39 39 35 32 26 26 23 13 6 6 10 10 13 3 3 3 3 0 0 0 0 3 3 6 3 3 3 10 16 23 19 19 26 42 58 77 77 87 87 87 87
23 19 23 39 29 23 19 19 13 6 6 6 6 3 3 3 3 3 0 0 0 0 0 0 0 0 3 3 3 6 13 10 16 16 23 32 39 52 65 74 77 87 87
16 16 19 26 13 13 13 10 6 6 6 6 3 3 3 3 0 0 0 0 0 0 0 0 0 0 0 0 0 0 3 6 6 13 16 16 23 26 45 35 58 71 84
16 13 16 10 6 10 6 6 3 3 3 3 3 3 0 0 0 0 0 0 0 0 0 0 0 0 0 0 0 0 0 0 0 0 6 16 13 13 16 13 42 39 68
13 10 10 6 10 6 6 6 3 3 0 0 0 0 0 0 0 0 0 0 0 0 0 0 0 0 0 0 0 0 0 0 0 0 0 3 6 6 16 16 23 16 32
10 10 10 6 6 3 6 3 0 0 0 0 0 0 0 0 0 0 0 0 0 0 0 0 0 0 0 0 0 0 0 0 0 0 0 0 0 3 6 3 6 13 13
10 13 13 6 0 3 3 3 0 0 0 0 0 0 0 0 0 0 0 0 0 0 0 0 0 0 0 0 0 0 0 0 0 0 0 0 0 0 3 6 3 6 6
13 13 10 6 0 3 3 0 0 0 0 0 0 0 0 0 0 0 0 0 0 0 0 0 0 0 0 0 0 0 0 0 0 0 0 0 0 0 0 0 0 0 6
13 10 10 6 0 0 0 0 0 0 0 0 0 0 0 0 0 0 0 0 0 0 0 0 0 0 0 0 0 0 0 0 0 0 0 0 0 0 0 0 0 0 0
6 6 3 0 0 0 0 0 0 0 0 0 0 0 0 0 0 0 0 0 0 0 0 0 0 0 0 0 0 0 0 0 0 0 0 0 0 0 0 0 0 0 0

GEFSSE_con_cape1000_096.txt.gz
Probability
35 81 100 100 100 100 100 100 100 100 100 100 100 100 100 100 97 94 90 87 84 77 77 77 71 65 68 77 68 65 68 74 71 74 71 81 81 87 84 90 87 84 94
48 84 100 100 100 100 100 100 100 100 100 100 100 100 100 100 100 97 100 94 90 84 71 74 84 81 81 77 71 65 65 61 68 77 77 81 81 87 84 87 94 94 94
61 87 100 100 100 100 100 100 100 100 100 100 100 100 97 97 100 97 90 90 84 71 77 84 81 87 84 81 65 71 61 65 71 74 77 77 81 84 87 90 97 97 97
65 87 94 100 100 100 100 100 100 100 100 100 97 97 97 97 94 97 97 90 87 94 87 87 81 81 81 81 77 81 71 84 81 71 61 71 74 87 90 97 97 97 97
71 97 100 100 100 100 100 100 100 100 100 97 97 97 97 97 97 97 97 87 84 87 84 84 87 87 87 74 74 74 77 74 61 58 39 74 87 90 90 97 97 97 94
84 100 100 100 100 100 100 100 100 100 100 97 97 97 97 97 97 97 87 87 84 90 87 81 87 87 94 94 74 68 68 55 52 32 55 74 81 90 87 94 94 94 97
87 97 100 100 100 100 100 100 100 100 100 100 100 100 97 97 100 94 87 84 87 87 81 84 87 94 97 94 84 74 74 48 29 23 48 71 81 87 87 90 94 94 97
87 100 100 100 100 100 100 100 100 100 100 100 100 100 100 97 94 94 90 84 87 87 84 81 87 90 94 87 94 94 77 55 19 19 29 74 87 90 90 90 97 94 97
90 97 100 100 100 100 100 100 100 100 100 100 100 100 100 97 97 90 87 90 87 81 77 71 74 87 97 97 97 90 74 48 26 32 39 81 87 90 84 87 87 87 87
97 100 100 100 100 100 100 100 100 100 100 100 100 100 94 94 87 81 90 87 87 77 71 61 68 77 94 97 97 94 84 65 23 32 48 87 90 84 87 87 87 81 81
100 100 100 100 100 97 100 100 100 100 100 100 97 97 94 87 71 77 81 84 81 71 68 61 74 90 97 97 90 87 90 61 32 23 58 90 90 84 84 87 84 84 87
100 100 100 100 94 97 100 100 100 97 97 97 97 97 94 84 81 58 84 81 77 71 74 81 84 71 71 77 77 84 81 45 42 39 87 94 90 90 87 87 84 84 87
100 100 97 97 94 87 100 100 100 100 94 94 97 94 94 87 87 71 81 84 87 81 68 87 55 48 58 61 74 74 71 55 45 39 84 94 94 90 90 90 87 81 81
90 90 94 94 94 94 97 100 100 94 94 94 90 90 87 81 84 81 87 81 77 74 74 48 61 52 55 58 68 74 71 68 48 52 90 84 90 94 94 94 90 87 87
94 87 84 87 94 94 94 100 97 94 94 90 90 90 84 77 77 71 77 77 65 65 58 61 55 61 61 48 58 55 71 74 65 55 90 77 90 90 94 87 84 94 90
90 84 84 87 90 94 94 97 97 94 94 87 81 84 74 61 68 68 68 68 48 45 45 52 39 61 45 52 55 52 52 52 68 74 77 84 87 90 94 87 87 87 84
87 84 84 87 87 90 94 90 94 90 84 77 77 74 65 48 58 58 45 48 35 39 48 45 39 39 35 39 39 35 45 58 52 65 68 71 71 68 81 84 81 84 81
71 77 71 74 81 84 94 90 87 81 77 77 61 55 52 48 52 52 42 29 42 19 19 35 16 19 23 26 39 32 32 61 58 65 65 61 68 61 71 71 81 77 74
74 74 71 71 71 77 81 84 84 77 77 65 45 42 45 42 39 42 32 39 39 16 13 13 3 6 16 16 29 45 39 23 39 35 45 39 58 58 68 68 65 71 61
65 68 77 71 71 74 77 81 77 68 61 52 42 42 42 39 39 39 32 32 19 16 16 16 13 19 19 19 13 10 26 19 39 32 39 35 42 42 45 32 58 52 65
65 68 61 71 71 71 68 68 71 71 52 45 35 35 35 32 32 26 13 26 19 13 16 6 6 10 13 13 13 16 10 10 19 35 39 29 23 29 32 32 45 48 58
52 48 42 52 61 65 61 74 71 65 45 35 19 26 29 26 23 16 13 16 16 6 6 3 10 10 0 3 10 16 13 13 23 0 10 19 19 19 19 19 23 39 39
39 45 39 42 48 55 55 58 48 48 29 23 23 29 23 13 16 6 6 3 6 3 6 6 10 0 3 0 0 3 10 10 13 3 3 3 10 6 3 13 13 23 26
42 39 52 39 45 39 42 42 39 35 26 23 26 29 23 19 16 3 3 3 6 0 3 3 0 0 0 0 3 6 6 10 3 3 0 0 3 10 3 0 0 13 19
32 32 45 39 39 39 39 42 39 39 39 26 19 23 23 13 6 0 3 3 3 0 0 0 0 0 0 3 0 3 3 0 0 3 10 0 0 0 0 6 10 10 16
39 29 35 35 39 39 42 35 35 35 39 23 13 16 13 10 10 0 0 3 0 0 0 0 0 0 0 0 0 0 0 0 3 3 0 0 0 3 0 6 6 6 6

GEFSSE_con_cape1000_102.txt.gz
Probability
87 94 100 100 97 100 100 100 100 100 100 100 100 100 97 94 90 97 81 81 77 77 71 71 65 71 65 61 61 74 74 71 68 74 71 77 74 84 84 84 94 84 90
97 97 100 100 100 100 100 100 100 100 100 100 100 100 97 94 100 97 94 87 81 84 84 81 81 77 71 65 65 71 68 68 74 68 74 77 81 77 84 87 90 90 94
97 97 100 100 100 100 100 100 97 100 100 100 100 100 97 100 100 90 87 87 84 87 84 84 90 81 81 74 61 58 65 65 71 68 71 55 65 71 87 84 90 90 97
87 97 100 100 100 100 100 100 100 100 97 100 100 100 100 97 97 90 81 84 90 87 87 84 84 81 81 71 65 71 74 71 71 58 48 42 29 71 81 87 90 94 87
84 94 100 100 100 100 100 100 100 100 97 97 97 97 97 97 97 94 90 90 90 94 94 90 81 87 81 71 68 74 61 65 71 52 48 52 61 87 90 90 94 90 87
97 97 100 100 100 100 100 100 100 97 97 97 97 97 97 97 97 94 90 90 97 97 84 84 84 84 74 71 58 55 58 55 65 42 58 58 74 90 94 94 87 94 94
97 100 100 100 100 100 100 100 100 100 100 100 97 97 97 97 100 97 97 94 94 87 87 87 87 87 74 65 55 48 48 58 65 58 58 74 84 87 87 90 90 90 90
97 100 100 100 100 100 100 100 100 100 97 100 100 100 100 100 97 90 94 90 87 84 87 94 87 84 84 74 61 52 52 71 48 55 68 71 84 87 87 87 90 90 84
97 97 100 100 100 100 100 100 100 100 100 100 100 100 100 97 100 97 97 94 84 81 87 87 87 81 77 84 61 48 65 84 58 55 48 61 84 87 81 77 81 81 81
100 97 100 100 100 100 100 100 100 100 100 100 100 100 97 97 100 97 94 90 84 74 71 87 81 68 71 74 68 65 84 87 26 52 58 74 87 84 81 81 81 84 81
97 97 100 100 100 100 100 100 100 100 100 100 100 100 97 94 90 94 97 87 77 71 58 61 68 68 77 74 71 74 58 55 29 55 61 90 90 84 81 77 77 77 81
97 97 100 100 100 97 97 100 100 100 100 97 97 97 100 100 100 94 100 97 81 74 61 68 71 74 74 74 61 77 61 52 39 61 71 90 87 84 81 74 77 77 77
90 94 94 97 97 97 97 100 100 100 100 97 97 97 100 100 100 94 84 87 90 84 77 87 84 61 84 81 77 68 61 39 45 55 77 87 87 87 84 74 71 77 81
90 90 94 97 100 100 100 100 100 100 97 97 100 97 97 97 94 94 94 90 94 94 90 87 94 94 94 87 84 84 71 52 61 65 81 87 87 87 84 77 74 74 81
87 87 90 100 97 97 97 97 100 100 100 100 100 94 87 90 90 90 90 94 94 94 94 87 94 84 90 84 90 81 74 68 81 68 74 90 87 87 87 87 81 68 74
87 94 90 87 90 90 97 97 97 100 97 90 97 90 84 84 94 90 94 94 87 90 87 90 94 90 97 94 84 68 77 71 81 77 71 87 97 90 94 94 90 84 84
87 90 90 87 87 90 90 90 97 97 84 84 90 87 84 84 87 84 87 84 84 81 81 81 77 87 87 81 74 71 74 87 81 77 68 65 77 90 90 90 90 87 87
87 77 81 84 87 81 87 90 94 94 81 84 87 84 77 77 71 77 81 77 77 77 81 81 77 81 81 74 81 77 81 77 71 68 61 71 58 52 84 87 87 87 77
84 74 77 87 87 81 84 87 94 97 90 87 74 74 61 58 58 65 77 81 61 71 68 39 68 77 74 74 74 87 84 74 77 58 58 52 58 58 52 68 84 77 77
77 71 74 74 74 77 74 77 87 87 81 77 65 65 52 48 52 52 71 55 52 65 52 58 61 61 74 77 19 29 74 74 87 71 55 61 65 65 68 48 65 65 71
74 68 71 68 74 74 74 81 74 71 68 74 65 55 48 48 45 48 58 48 42 61 45 35 32 32 45 45 42 42 48 52 68 81 68 52 52 52 58 65 65 61 58
77 68 71 74 74 74 77 77 71 68 61 61 58 48 45 42 45 35 55 52 42 58 39 29 26 48 42 32 29 32 32 39 58 29 61 52 35 48 48 42 55 58 42
71 61 55 65 61 68 71 65 61 68 58 48 58 52 45 39 45 48 39 39 45 48 45 39 35 32 32 29 32 29 26 23 23 29 35 45 52 39 39 42 45 52 42
65 58 61 65 58 55 58 55 52 42 39 52 61 52 42 35 32 26 29 29 32 39 58 35 19 32 35 29 35 35 35 35 19 16 29 32 45 39 23 16 26 52 42
58 52 58 58 55 55 58 52 55 48 52 52 55 55 48 35 26 19 19 23 26 32 32 23 29 26 35 32 26 32 26 35 26 19 13 10 19 29 39 39 35 32 32
55 52 52 58 58 58 55 52 48 39 45 55 52 45 35 32 23 16 13 26 26 23 23 16 19 16 26 29 39 26 26 26 13 16 16 23 23 26 26 42 29 35 42